This demonstration page uses our WeatherBlox Daily Observations layout. Learn more.

Left ArrowRight Arrow

39.01783, -85.05884

Hourly Observations for June 25, 2022

Temp ( °F °C ) Dew Point ( °F °C ) Humidity (%) Winds ( mph kmh ) Pressure ( in mb ) Visibility ( mi km ) Precip ( " mm )
12:52 am 00:52 Mostly Clear 71 21.7 60 15.6 68 68 Calm 30.02 1017 10 16 0.00 0.00
1:52 am 01:52 Clear 72 22.2 57 13.9 59 59 SE 3 6 30.02 1017 10 16 0.00 0.00
2:52 am 02:52 Clear 68 20 58 14.4 70 70 S 5 7 30.02 1017 10 16 0.00 0.00
3:52 am 03:52 Clear 70 21.1 57 13.9 64 64 Calm 30.01 1016 10 16 0.00 0.00
4:52 am 04:52 Clear 67 19.4 58 14.4 73 73 Calm 30.02 1017 10 16 0.00 0.00
5:52 am 05:52 Mostly Clear 68 20 59 15 73 73 E 3 6 30.03 1017 10 16 0.00 0.00
6:52 am 06:52 Sunny 67 19.4 60 15.6 79 79 E 5 7 30.04 1017 10 16 0.00 0.00
7:52 am 07:52 Mostly Cloudy 72 22.2 61 16.1 68 68 ESE 6 9 30.04 1017 10 16 0.00 0.00
8:52 am 08:52 Mostly Cloudy 75 23.9 60 15.6 60 60 ESE 9 15 30.06 1018 10 16 0.00 0.00
9:52 am 09:52 Mostly Cloudy 79 26.1 60 15.6 52 52 SE 9 15 30.05 1018 10 16 0.00 0.00
10:52 am 10:52 Mostly Cloudy 80 26.7 58 14.4 47 47 SE 10 17 30.05 1018 10 16 0.00 0.00
11:52 am 11:52 Mostly Cloudy 83 28.3 59 15 44 44 SE 7 11 30.06 1018 10 16 0.00 0.00
12:27 pm 12:27 Partly Cloudy 85 29.4 60 15.6 43 43 SE 8 13 30.03 1017 10 16 0.00 0.00
12:52 pm 12:52 Mostly Cloudy 84 28.9 60 15.6 44 44 ESE 8 13 30.05 1018 10 16 0.00 0.00
1:52 pm 13:52 Mostly Cloudy 86 30 63 17.2 46 46 ESE 8 13 30.03 1017 10 16 0.00 0.00
2:52 pm 14:52 Mostly Cloudy 86 30 64 17.8 48 48 VRB 3 6 30.02 1017 10 16 0.00 0.00
3:52 pm 15:52 Cloudy 86 30 66 18.9 51 51 W 3 6 30.03 1017 10 16 0.00 0.00
4:52 pm 16:52 Mostly Cloudy 88 31.1 65 18.3 46 46 VRB 5 7 30.03 1017 10 16 0.00 0.00
5:52 pm 17:52 Mostly Cloudy 88 31.1 65 18.3 46 46 N 3 6 30.01 1016 10 16 0.00 0.00
6:52 pm 18:52 Mostly Cloudy 85 29.4 65 18.3 51 51 Calm 29.97 1015 10 16 0.00 0.00
7:52 pm 19:52 Mostly Cloudy 84 28.9 64 17.8 51 51 SSE 7 11 29.96 1015 10 16 0.00 0.00
8:52 pm 20:52 Cloudy 82 27.8 67 19.4 60 60 SSE 7 11 29.99 1016 10 16 0.00 0.00
9:52 pm 21:52 Cloudy 80 26.7 68 20 67 67 SSW 6 9 30.00 1016 10 16 0.00 0.00
10:52 pm 22:52 Cloudy 79 26.1 69 20.6 72 72 S 3 6 30.01 1016 10 16 0.00 0.00
11:52 pm 23:52 Cloudy 77 25 69 20.6 77 77 SSW 5 7 30.00 1016 10 16 0.00 0.00

Powered by AerisWeather